Time,TemperatureF,DewpointF,PressureIn,WindDirection,WindDirectionDegrees,WindSpeedMPH,WindSpeedGustMPH,Humidity,HourlyPrecipIn,Conditions,Clouds,dailyrainin,SoftwareType,DateUTC
2013-07-23 00:43:00,89.0,13.0,-100.00,WSW,241,13.0,24.0,6,0.00,,,0.00,,2013-07-23 00:43:00,
2013-07-23 02:22:00,85.0,17.0,-100.00,WSW,242,8.0,17.0,8,0.00,,,0.00,,2013-07-23 02:22:00,
2013-07-23 02:33:00,85.0,17.0,-100.00,WSW,242,8.0,17.0,8,0.00,,,0.00,,2013-07-23 02:33:00,
2013-07-23 02:43:00,85.0,17.0,-100.00,WSW,242,8.0,17.0,8,0.00,,,0.00,,2013-07-23 02:43:00,
2013-07-23 02:51:00,72.0,23.0,-100.00,WSW,251,3.0,12.0,16,0.00,,,0.00,,2013-07-23 02:51:00,
2013-07-23 03:33:00,72.0,23.0,-100.00,WSW,251,3.0,12.0,16,0.00,,,0.00,,2013-07-23 03:33:00,
2013-07-23 03:43:00,72.0,23.0,-100.00,WSW,251,3.0,12.0,16,0.00,,,0.00,,2013-07-23 03:43:00,
2013-07-23 04:21:00,71.0,23.0,-100.00,ENE,77,8.0,12.0,16,0.00,,,0.00,,2013-07-23 04:21:00,
2013-07-23 04:32:00,71.0,23.0,-100.00,ENE,77,8.0,12.0,16,0.00,,,0.00,,2013-07-23 04:32:00,
2013-07-23 04:51:00,64.0,27.0,-100.00,ENE,59,8.0,15.0,25,0.00,,,0.00,,2013-07-23 04:51:00,
2013-07-23 05:22:00,64.0,27.0,-100.00,ENE,59,8.0,15.0,25,0.00,,,0.00,,2013-07-23 05:22:00,
2013-07-23 05:33:00,64.0,27.0,-100.00,ENE,59,8.0,15.0,25,0.00,,,0.00,,2013-07-23 05:33:00,
2013-07-23 05:43:00,64.0,27.0,-100.00,ENE,59,8.0,15.0,25,0.00,,,0.00,,2013-07-23 05:43:00,
2013-07-23 05:51:00,61.0,27.0,-100.00,NE,54,9.0,18.0,27,0.00,,,0.00,,2013-07-23 05:51:00,
2013-07-23 06:22:00,61.0,27.0,-100.00,NE,54,9.0,18.0,27,0.00,,,0.00,,2013-07-23 06:22:00,
2013-07-23 06:33:00,61.0,27.0,-100.00,NE,54,9.0,18.0,27,0.00,,,0.00,,2013-07-23 06:33:00,
2013-07-23 06:42:00,61.0,27.0,-100.00,NE,54,9.0,18.0,27,0.00,,,0.00,,2013-07-23 06:42:00,
2013-07-23 06:51:00,59.0,28.0,-100.00,ENE,58,9.0,19.0,30,0.00,,,0.00,,2013-07-23 06:51:00,
2013-07-23 07:21:00,59.0,28.0,-100.00,ENE,58,9.0,19.0,30,0.00,,,0.00,,2013-07-23 07:21:00,
2013-07-23 07:33:00,59.0,28.0,-100.00,ENE,58,9.0,19.0,30,0.00,,,0.00,,2013-07-23 07:33:00,
2013-07-23 07:42:00,59.0,28.0,-100.00,ENE,58,9.0,19.0,30,0.00,,,0.00,,2013-07-23 07:42:00,
2013-07-23 07:51:00,56.0,28.0,-100.00,East,82,6.0,19.0,34,0.00,,,0.00,,2013-07-23 07:51:00,
2013-07-23 08:21:00,56.0,28.0,-100.00,East,82,6.0,19.0,34,0.00,,,0.00,,2013-07-23 08:21:00,
2013-07-23 08:33:00,56.0,28.0,-100.00,East,82,6.0,19.0,34,0.00,,,0.00,,2013-07-23 08:33:00,
2013-07-23 08:43:00,56.0,28.0,-100.00,East,82,6.0,19.0,34,0.00,,,0.00,,2013-07-23 08:43:00,
2013-07-23 08:51:00,52.0,28.0,-100.00,ENE,60,12.0,21.0,40,0.00,,,0.00,,2013-07-23 08:51:00,
2013-07-23 09:22:00,52.0,28.0,-100.00,ENE,60,12.0,21.0,40,0.00,,,0.00,,2013-07-23 09:22:00,
2013-07-23 09:33:00,52.0,28.0,-100.00,ENE,60,12.0,21.0,40,0.00,,,0.00,,2013-07-23 09:33:00,
2013-07-23 09:42:00,52.0,28.0,-100.00,ENE,60,12.0,21.0,40,0.00,,,0.00,,2013-07-23 09:42:00,
2013-07-23 09:51:00,49.0,29.0,-100.00,ENE,61,11.0,20.0,45,0.00,,,0.00,,2013-07-23 09:51:00,
2013-07-23 10:22:00,49.0,29.0,-100.00,ENE,61,11.0,20.0,45,0.00,,,0.00,,2013-07-23 10:22:00,
2013-07-23 10:32:00,49.0,29.0,-100.00,ENE,61,11.0,20.0,45,0.00,,,0.00,,2013-07-23 10:32:00,
2013-07-23 10:43:00,49.0,29.0,-100.00,ENE,61,11.0,20.0,45,0.00,,,0.00,,2013-07-23 10:43:00,
2013-07-23 10:51:00,47.0,28.0,-100.00,ENE,59,12.0,21.0,47,0.00,,,0.00,,2013-07-23 10:51:00,
2013-07-23 11:22:00,47.0,28.0,-100.00,ENE,59,12.0,21.0,47,0.00,,,0.00,,2013-07-23 11:22:00,
2013-07-23 11:32:00,47.0,28.0,-100.00,ENE,59,12.0,21.0,47,0.00,,,0.00,,2013-07-23 11:32:00,
2013-07-23 11:43:00,47.0,28.0,-100.00,ENE,59,12.0,21.0,47,0.00,,,0.00,,2013-07-23 11:43:00,
2013-07-23 12:22:00,44.0,28.0,-100.00,ENE,57,11.0,19.0,53,0.00,,,0.00,,2013-07-23 12:22:00,
2013-07-23 12:33:00,44.0,28.0,-100.00,ENE,57,11.0,19.0,53,0.00,,,0.00,,2013-07-23 12:33:00,
2013-07-23 12:43:00,44.0,28.0,-100.00,ENE,57,11.0,19.0,53,0.00,,,0.00,,2013-07-23 12:43:00,
2013-07-23 12:51:00,41.0,29.0,-100.00,ENE,66,10.0,16.0,61,0.00,,,0.00,,2013-07-23 12:51:00,
2013-07-23 13:22:00,41.0,29.0,-100.00,ENE,66,10.0,16.0,61,0.00,,,0.00,,2013-07-23 13:22:00,
2013-07-23 13:32:00,41.0,29.0,-100.00,ENE,66,10.0,16.0,61,0.00,,,0.00,,2013-07-23 13:32:00,
2013-07-23 13:43:00,41.0,29.0,-100.00,ENE,66,10.0,16.0,61,0.00,,,0.00,,2013-07-23 13:43:00,
2013-07-23 13:51:00,42.0,29.0,-100.00,ENE,76,6.0,13.0,60,0.00,,,0.00,,2013-07-23 13:51:00,
2013-07-23 14:22:00,42.0,29.0,-100.00,ENE,76,6.0,13.0,60,0.00,,,0.00,,2013-07-23 14:22:00,
2013-07-23 14:32:00,42.0,29.0,-100.00,ENE,76,6.0,13.0,60,0.00,,,0.00,,2013-07-23 14:32:00,
2013-07-23 14:44:00,42.0,29.0,-100.00,ENE,76,6.0,13.0,60,0.00,,,0.00,,2013-07-23 14:44:00,
2013-07-23 14:51:00,52.0,31.0,-100.00,ENE,62,3.0,11.0,44,-99.99,,,0.00,,2013-07-23 14:51:00,
2013-07-23 15:24:00,52.0,31.0,-100.00,ENE,62,3.0,11.0,44,-99.99,,,0.00,,2013-07-23 15:24:00,
2013-07-23 15:32:00,52.0,31.0,-100.00,ENE,62,3.0,11.0,44,-99.99,,,0.00,,2013-07-23 15:32:00,
2013-07-23 15:43:00,52.0,31.0,-100.00,ENE,62,3.0,11.0,44,-99.99,,,0.00,,2013-07-23 15:43:00,
2013-07-23 15:51:00,66.0,30.0,-100.00,West,270,3.0,5.0,26,0.00,,,0.00,,2013-07-23 15:51:00,
2013-07-23 16:22:00,66.0,30.0,-100.00,West,270,3.0,5.0,26,0.00,,,0.00,,2013-07-23 16:22:00,
2013-07-23 16:33:00,66.0,30.0,-100.00,West,270,3.0,5.0,26,0.00,,,0.00,,2013-07-23 16:33:00,
2013-07-23 16:43:00,66.0,30.0,-100.00,West,270,3.0,5.0,26,0.00,,,0.00,,2013-07-23 16:43:00,
2013-07-23 16:51:00,74.0,32.0,-100.00,SW,236,4.0,8.0,21,0.00,,,0.00,,2013-07-23 16:51:00,
2013-07-23 18:44:00,80.0,28.0,-100.00,WSW,243,4.0,11.0,15,0.00,,,0.00,,2013-07-23 18:44:00,
2013-07-23 18:51:00,84.0,24.0,-100.00,SW,215,6.0,15.0,11,0.00,,,0.00,,2013-07-23 18:51:00,
2013-07-23 22:51:00,91.0,18.0,-100.00,West,263,6.0,15.0,7,0.00,,,0.00,,2013-07-23 22:51:00,
2013-07-23 23:24:00,91.0,18.0,-100.00,West,263,6.0,15.0,7,0.00,,,0.00,,2013-07-23 23:24:00,
2013-07-23 23:34:00,91.0,18.0,-100.00,West,263,6.0,15.0,7,0.00,,,0.00,,2013-07-23 23:34:00,
2013-07-23 23:43:00,91.0,18.0,-100.00,West,263,6.0,15.0,7,0.00,,,0.00,,2013-07-23 23:43:00,
2013-07-23 23:51:00,87.0,21.0,-100.00,WNW,302,6.0,16.0,9,0.00,,,0.00,,2013-07-23 23:51:00,